Time,TemperatureF,DewpointF,PressureIn,WindDirection,WindDirectionDegrees,WindSpeedMPH,WindSpeedGustMPH,Humidity,HourlyPrecipIn,Conditions,Clouds,dailyrainin,SoftwareType,DateUTC
2013-02-20 00:30:00,20.0,20.0,30.12,WSW,247,4.0,6.0,100,0.00,,,-99.99,Weather View 32 v60,2013-02-20 05:30:00,
2013-02-20 00:35:00,20.0,20.0,30.12,NNW,337,0.0,7.0,100,0.00,,,-99.99,Weather View 32 v60,2013-02-20 05:35:00,
2013-02-20 00:40:00,20.0,20.0,30.12,WNW,292,2.0,7.0,100,0.00,,,-99.99,Weather View 32 v60,2013-02-20 05:40:00,
2013-02-20 00:45:00,20.0,19.3,30.12,North,360,1.0,7.0,97,0.00,,,-99.99,Weather View 32 v60,2013-02-20 05:45:00,
2013-02-20 00:50:00,19.0,18.3,30.12,West,270,2.0,7.0,97,0.00,,,-99.99,Weather View 32 v60,2013-02-20 05:50:00,
2013-02-20 00:55:00,19.0,18.3,30.12,NW,315,3.0,7.0,97,0.00,,,-99.99,Weather View 32 v60,2013-02-20 05:55:00,
2013-02-20 01:00:00,19.0,17.8,30.12,NW,315,6.0,7.0,95,0.00,,,-99.99,Weather View 32 v60,2013-02-20 06:00:00,
2013-02-20 01:05:00,19.0,17.8,30.12,West,270,3.0,7.0,95,0.00,,,-99.99,Weather View 32 v60,2013-02-20 06:05:00,
2013-02-20 01:10:00,19.0,18.0,30.12,WNW,292,4.0,7.0,96,0.00,,,-99.99,Weather View 32 v60,2013-02-20 06:10:00,
2013-02-20 01:15:00,19.0,17.8,30.12,NW,315,0.0,7.0,95,0.00,,,-99.99,Weather View 32 v60,2013-02-20 06:15:00,
2013-02-20 01:20:00,19.0,18.3,30.13,West,270,3.0,7.0,97,0.00,,,-99.99,Weather View 32 v60,2013-02-20 06:20:00,
2013-02-20 01:25:00,19.0,18.5,30.13,West,270,0.0,7.0,98,0.00,,,-99.99,Weather View 32 v60,2013-02-20 06:25:00,
2013-02-20 01:30:00,18.0,18.0,30.14,West,270,3.0,7.0,100,0.00,,,-99.99,Weather View 32 v60,2013-02-20 06:30:00,
2013-02-20 01:35:00,18.0,18.0,30.14,West,270,2.0,7.0,100,0.00,,,-99.99,Weather View 32 v60,2013-02-20 06:35:00,
2013-02-20 01:40:00,18.0,18.0,30.14,WSW,247,3.0,8.0,100,0.00,,,-99.99,Weather View 32 v60,2013-02-20 06:40:00,
2013-02-20 01:45:00,18.0,18.0,30.14,WSW,247,6.0,8.0,100,0.00,,,-99.99,Weather View 32 v60,2013-02-20 06:45:00,
2013-02-20 01:50:00,18.0,18.0,30.13,West,270,0.0,8.0,100,0.00,,,-99.99,Weather View 32 v60,2013-02-20 06:50:00,
2013-02-20 01:55:00,18.0,18.0,30.13,West,270,2.0,8.0,100,0.00,,,-99.99,Weather View 32 v60,2013-02-20 06:55:00,
2013-02-20 02:00:00,18.0,18.0,30.14,West,270,4.0,8.0,100,0.00,,,-99.99,Weather View 32 v60,2013-02-20 07:00:00,
2013-02-20 02:10:00,18.0,18.0,30.14,SW,225,6.0,8.0,100,0.00,,,-99.99,Weather View 32 v60,2013-02-20 07:10:00,
2013-02-20 02:15:00,18.0,18.0,30.14,WSW,247,1.0,8.0,100,0.00,,,-99.99,Weather View 32 v60,2013-02-20 07:15:00,
2013-02-20 02:20:00,18.0,18.0,30.15,SW,225,4.0,9.0,100,0.00,,,-99.99,Weather View 32 v60,2013-02-20 07:20:00,
2013-02-20 02:25:00,19.0,18.8,30.15,West,270,6.0,9.0,99,0.00,,,-99.99,Weather View 32 v60,2013-02-20 07:25:00,
2013-02-20 02:30:00,19.0,18.8,30.15,SW,225,4.0,9.0,99,0.00,,,-99.99,Weather View 32 v60,2013-02-20 07:30:00,
2013-02-20 02:35:00,19.0,18.3,30.15,SW,225,0.0,9.0,97,0.00,,,-99.99,Weather View 32 v60,2013-02-20 07:35:00,
2013-02-20 02:40:00,19.0,18.3,30.14,WSW,247,1.0,9.0,97,0.00,,,-99.99,Weather View 32 v60,2013-02-20 07:40:00,
2013-02-20 02:45:00,20.0,17.8,30.14,WSW,247,6.0,11.0,91,0.00,,,-99.99,Weather View 32 v60,2013-02-20 07:45:00,
2013-02-20 02:50:00,20.0,18.1,30.15,West,270,0.0,11.0,92,0.00,,,-99.99,Weather View 32 v60,2013-02-20 07:50:00,
2013-02-20 02:55:00,20.0,18.1,30.15,WSW,247,1.0,11.0,92,0.00,,,-99.99,Weather View 32 v60,2013-02-20 07:55:00,
2013-02-20 03:00:00,20.0,17.8,30.14,SW,225,2.0,11.0,91,0.00,,,-99.99,Weather View 32 v60,2013-02-20 08:00:00,
2013-02-20 03:05:00,20.0,17.8,30.14,West,270,2.0,11.0,91,0.00,,,-99.99,Weather View 32 v60,2013-02-20 08:05:00,
2013-02-20 03:10:00,20.0,17.5,30.15,WNW,292,0.0,11.0,90,0.00,,,-99.99,Weather View 32 v60,2013-02-20 08:10:00,
2013-02-20 03:15:00,20.0,17.5,30.15,WSW,247,5.0,11.0,90,0.00,,,-99.99,Weather View 32 v60,2013-02-20 08:15:00,
2013-02-20 03:20:00,20.0,17.5,30.15,WSW,247,4.0,11.0,90,0.00,,,-99.99,Weather View 32 v60,2013-02-20 08:20:00,
2013-02-20 03:25:00,20.0,17.5,30.15,WSW,247,3.0,11.0,90,0.00,,,-99.99,Weather View 32 v60,2013-02-20 08:25:00,
2013-02-20 03:30:00,20.0,17.5,30.15,West,270,2.0,11.0,90,0.00,,,-99.99,Weather View 32 v60,2013-02-20 08:30:00,
2013-02-20 03:35:00,20.0,17.8,30.15,WSW,247,0.0,11.0,91,0.00,,,-99.99,Weather View 32 v60,2013-02-20 08:35:00,
2013-02-20 03:40:00,20.0,17.5,30.15,West,270,3.0,11.0,90,0.00,,,-99.99,Weather View 32 v60,2013-02-20 08:40:00,
2013-02-20 03:45:00,20.0,16.8,30.15,West,270,7.0,10.0,87,0.00,,,-99.99,Weather View 32 v60,2013-02-20 08:45:00,
2013-02-20 03:50:00,20.0,17.0,30.15,WSW,247,3.0,10.0,88,0.00,,,-99.99,Weather View 32 v60,2013-02-20 08:50:00,
2013-02-20 03:55:00,20.0,17.0,30.15,West,270,5.0,10.0,88,0.00,,,-99.99,Weather View 32 v60,2013-02-20 08:55:00,
2013-02-20 04:00:00,20.0,17.0,30.16,WSW,247,5.0,10.0,88,0.00,,,-99.99,Weather View 32 v60,2013-02-20 09:00:00,
2013-02-20 04:05:00,20.0,17.0,30.16,WNW,292,2.0,10.0,88,0.00,,,-99.99,Weather View 32 v60,2013-02-20 09:05:00,
2013-02-20 04:10:00,20.0,16.8,30.16,West,270,3.0,10.0,87,0.00,,,-99.99,Weather View 32 v60,2013-02-20 09:10:00,
2013-02-20 04:15:00,20.0,17.3,30.16,WSW,247,3.0,10.0,89,0.00,,,-99.99,Weather View 32 v60,2013-02-20 09:15:00,
2013-02-20 04:20:00,20.0,17.3,30.16,WSW,247,0.0,10.0,89,0.00,,,-99.99,Weather View 32 v60,2013-02-20 09:20:00,
2013-02-20 04:25:00,20.0,17.0,30.16,West,270,0.0,10.0,88,0.00,,,-99.99,Weather View 32 v60,2013-02-20 09:25:00,
2013-02-20 04:30:00,20.0,16.8,30.16,West,270,1.0,10.0,87,0.00,,,-99.99,Weather View 32 v60,2013-02-20 09:30:00,
2013-02-20 04:35:00,20.0,17.0,30.16,WSW,247,3.0,10.0,88,0.00,,,-99.99,Weather View 32 v60,2013-02-20 09:35:00,
2013-02-20 04:40:00,20.0,16.5,30.16,WSW,247,2.0,10.0,86,0.00,,,-99.99,Weather View 32 v60,2013-02-20 09:40:00,
2013-02-20 04:45:00,20.0,16.5,30.16,WSW,247,3.0,10.0,86,0.00,,,-99.99,Weather View 32 v60,2013-02-20 09:45:00,
2013-02-20 04:50:00,20.0,16.5,30.16,SW,225,0.0,10.0,86,0.00,,,-99.99,Weather View 32 v60,2013-02-20 09:50:00,
2013-02-20 04:55:00,20.0,16.5,30.16,WSW,247,3.0,10.0,86,0.00,,,-99.99,Weather View 32 v60,2013-02-20 09:55:00,
2013-02-20 05:00:00,20.0,16.5,30.17,WSW,247,7.0,10.0,86,0.00,,,-99.99,Weather View 32 v60,2013-02-20 10:00:00,
2013-02-20 05:15:00,19.0,16.3,30.18,WSW,247,4.0,10.0,89,0.00,,,-99.99,Weather View 32 v60,2013-02-20 10:15:00,
2013-02-20 05:20:00,19.0,16.3,30.17,WSW,247,5.0,10.0,89,0.00,,,-99.99,Weather View 32 v60,2013-02-20 10:20:00,
2013-02-20 05:30:00,18.0,15.8,30.18,West,270,1.0,10.0,91,0.00,,,-99.99,Weather View 32 v60,2013-02-20 10:30:00,
2013-02-20 05:35:00,18.0,16.1,30.18,NW,315,0.0,10.0,92,0.00,,,-99.99,Weather View 32 v60,2013-02-20 10:35:00,
2013-02-20 05:40:00,18.0,16.6,30.18,WSW,247,1.0,10.0,94,0.00,,,-99.99,Weather View 32 v60,2013-02-20 10:40:00,
2013-02-20 05:50:00,17.0,15.8,30.18,West,270,0.0,10.0,95,0.00,,,-99.99,Weather View 32 v60,2013-02-20 10:50:00,
2013-02-20 05:55:00,16.0,15.5,30.18,West,270,0.0,10.0,98,0.00,,,-99.99,Weather View 32 v60,2013-02-20 10:55:00,
2013-02-20 06:00:00,16.0,16.0,30.18,West,270,0.0,10.0,100,0.00,,,-99.99,Weather View 32 v60,2013-02-20 11:00:00,
2013-02-20 06:04:00,20.0,16.5,30.17,WSW,247,2.0,10.0,86,0.00,,,-99.99,Weather View 32 v60,2013-02-20 11:04:00,
2013-02-20 06:09:00,20.0,16.8,30.18,WSW,247,5.0,10.0,87,0.00,,,-99.99,Weather View 32 v60,2013-02-20 11:09:00,
2013-02-20 06:15:00,15.0,15.0,30.19,WNW,292,0.0,8.0,100,0.00,,,-99.99,Weather View 32 v60,2013-02-20 11:15:00,
2013-02-20 06:24:00,19.0,16.3,30.17,WSW,247,0.0,10.0,89,0.00,,,-99.99,Weather View 32 v60,2013-02-20 11:24:00,
2013-02-20 06:44:00,17.0,15.8,30.18,West,270,2.0,10.0,95,0.00,,,-99.99,Weather View 32 v60,2013-02-20 11:44:00,
2013-02-20 07:04:00,16.0,16.0,30.18,WNW,292,0.0,10.0,100,0.00,,,-99.99,Weather View 32 v60,2013-02-20 12:04:00,
2013-02-20 07:09:00,15.0,15.0,30.19,WNW,292,0.0,10.0,100,0.00,,,-99.99,Weather View 32 v60,2013-02-20 12:09:00,
2013-02-20 07:19:00,15.0,15.0,30.19,WNW,292,0.0,6.0,100,0.00,,,-99.99,Weather View 32 v60,2013-02-20 12:19:00,
2013-02-20 07:20:00,21.0,18.0,30.20,SW,225,3.0,6.0,88,0.00,,,-99.99,Weather View 32 v60,2013-02-20 12:20:00,
2013-02-20 07:24:00,14.0,14.0,30.19,WNW,292,0.0,6.0,100,0.00,,,-99.99,Weather View 32 v60,2013-02-20 12:24:00,
2013-02-20 07:25:00,21.0,17.5,30.20,WSW,247,2.0,7.0,86,0.00,,,-99.99,Weather View 32 v60,2013-02-20 12:25:00,
2013-02-20 07:31:00,14.0,14.0,30.20,WNW,292,0.0,5.0,100,0.00,,,-99.99,Weather View 32 v60,2013-02-20 12:31:00,
2013-02-20 07:35:00,22.0,17.9,30.19,SW,225,2.0,7.0,84,0.00,,,-99.99,Weather View 32 v60,2013-02-20 12:35:00,
2013-02-20 07:39:00,14.0,14.0,30.20,WSW,247,0.0,2.0,100,0.00,,,-99.99,Weather View 32 v60,2013-02-20 12:39:00,
2013-02-20 07:49:00,16.0,16.0,30.20,SW,225,0.0,0.0,100,0.00,,,-99.99,Weather View 32 v60,2013-02-20 12:49:00,
2013-02-20 07:59:00,18.0,18.0,30.20,SW,225,0.0,5.0,100,0.00,,,-99.99,Weather View 32 v60,2013-02-20 12:59:00,
2013-02-20 08:09:00,20.0,17.8,30.20,West,270,1.0,5.0,91,0.00,,,-99.99,Weather View 32 v60,2013-02-20 13:09:00,
2013-02-20 08:14:00,20.0,17.0,30.20,SW,225,4.0,6.0,88,0.00,,,-99.99,Weather View 32 v60,2013-02-20 13:14:00,
2013-02-20 08:29:00,22.0,18.5,30.19,WSW,247,2.0,7.0,86,0.00,,,-99.99,Weather View 32 v60,2013-02-20 13:29:00,
2013-02-20 08:39:00,23.0,19.2,30.18,SW,225,6.0,8.0,85,0.00,,,-99.99,Weather View 32 v60,2013-02-20 13:39:00,
2013-02-20 08:49:00,23.0,18.3,30.18,WSW,247,4.0,8.0,82,0.00,,,-99.99,Weather View 32 v60,2013-02-20 13:49:00,
2013-02-20 08:54:00,23.0,18.3,30.18,WSW,247,0.0,8.0,82,0.00,,,-99.99,Weather View 32 v60,2013-02-20 13:54:00,
2013-02-20 09:04:00,24.0,18.4,30.18,West,270,1.0,8.0,79,0.00,,,-99.99,Weather View 32 v60,2013-02-20 14:04:00,
2013-02-20 09:09:00,24.0,17.5,30.18,West,270,1.0,8.0,76,0.00,,,-99.99,Weather View 32 v60,2013-02-20 14:09:00,
2013-02-20 09:14:00,25.0,17.6,30.18,WNW,292,0.0,8.0,73,0.00,,,-99.99,Weather View 32 v60,2013-02-20 14:14:00,
2013-02-20 09:24:00,27.0,18.5,30.18,West,270,3.0,9.0,70,0.00,,,-99.99,Weather View 32 v60,2013-02-20 14:24:00,
2013-02-20 09:32:00,27.0,17.5,30.16,WSW,247,3.0,9.0,67,0.00,,,-99.99,Weather View 32 v60,2013-02-20 14:32:00,
2013-02-20 09:39:00,27.0,17.8,30.16,West,270,6.0,9.0,68,0.00,,,-99.99,Weather View 32 v60,2013-02-20 14:39:00,
2013-02-20 09:49:00,26.0,17.2,30.16,SW,225,4.0,9.0,69,0.00,,,-99.99,Weather View 32 v60,2013-02-20 14:49:00,
2013-02-20 09:59:00,27.0,17.2,30.16,WSW,247,0.0,9.0,66,0.00,,,-99.99,Weather View 32 v60,2013-02-20 14:59:00,
2013-02-20 10:09:00,28.0,18.1,30.16,WSW,247,3.0,9.0,66,0.00,,,-99.99,Weather View 32 v60,2013-02-20 15:09:00,
2013-02-20 10:19:00,27.0,17.5,30.17,WNW,292,3.0,9.0,67,0.00,,,-99.99,Weather View 32 v60,2013-02-20 15:19:00,
2013-02-20 10:29:00,27.0,17.2,30.17,WSW,247,4.0,12.0,66,0.00,,,-99.99,Weather View 32 v60,2013-02-20 15:29:00,
2013-02-20 10:39:00,29.0,18.0,30.17,WSW,247,6.0,12.0,63,0.00,,,-99.99,Weather View 32 v60,2013-02-20 15:39:00,
2013-02-20 10:49:00,28.0,17.8,30.17,West,270,5.0,12.0,65,0.00,,,-99.99,Weather View 32 v60,2013-02-20 15:49:00,
2013-02-20 10:59:00,28.0,18.1,30.17,SW,225,3.0,12.0,66,0.00,,,-99.99,Weather View 32 v60,2013-02-20 15:59:00,
2013-02-20 11:09:00,29.0,17.6,30.18,WSW,247,6.0,12.0,62,0.00,,,-99.99,Weather View 32 v60,2013-02-20 16:09:00,
2013-02-20 11:19:00,30.0,17.8,30.18,West,270,3.0,13.0,60,0.00,,,-99.99,Weather View 32 v60,2013-02-20 16:19:00,
2013-02-20 11:29:00,31.0,18.7,30.18,WNW,292,1.0,13.0,60,0.00,,,-99.99,Weather View 32 v60,2013-02-20 16:29:00,
2013-02-20 11:34:00,31.0,18.3,30.18,ENE,67,0.0,13.0,59,0.00,,,-99.99,Weather View 32 v60,2013-02-20 16:34:00,
2013-02-20 11:44:00,31.0,17.9,30.17,WSW,247,6.0,13.0,58,0.00,,,-99.99,Weather View 32 v60,2013-02-20 16:44:00,
2013-02-20 11:49:00,30.0,18.2,30.17,WNW,292,0.0,13.0,61,0.00,,,-99.99,Weather View 32 v60,2013-02-20 16:49:00,
2013-02-20 11:59:00,32.0,19.3,30.17,West,270,10.0,13.0,59,0.00,,,-99.99,Weather View 32 v60,2013-02-20 16:59:00,
2013-02-20 12:09:00,32.0,18.9,30.18,WSW,247,1.0,13.0,58,0.00,,,-99.99,Weather View 32 v60,2013-02-20 17:09:00,
2013-02-20 12:19:00,31.0,18.3,30.18,SW,225,7.0,12.0,59,0.00,,,-99.99,Weather View 32 v60,2013-02-20 17:19:00,
2013-02-20 12:29:00,32.0,18.9,30.18,WSW,247,6.0,12.0,58,0.00,,,-99.99,Weather View 32 v60,2013-02-20 17:29:00,
2013-02-20 12:34:00,31.0,18.3,30.18,NNW,337,3.0,12.0,59,0.00,,,-99.99,Weather View 32 v60,2013-02-20 17:34:00,
2013-02-20 12:39:00,31.0,18.7,30.18,WSW,247,2.0,12.0,60,0.00,,,-99.99,Weather View 32 v60,2013-02-20 17:39:00,
2013-02-20 12:49:00,31.0,17.9,30.17,West,270,4.0,12.0,58,0.00,,,-99.99,Weather View 32 v60,2013-02-20 17:49:00,
2013-02-20 12:59:00,32.0,18.5,30.17,WSW,247,3.0,12.0,57,0.00,,,-99.99,Weather View 32 v60,2013-02-20 17:59:00,
2013-02-20 13:09:00,33.0,19.4,30.16,West,270,3.0,12.0,57,0.00,,,-99.99,Weather View 32 v60,2013-02-20 18:09:00,
2013-02-20 13:14:00,33.0,19.8,30.16,West,270,4.0,16.0,58,0.00,,,-99.99,Weather View 32 v60,2013-02-20 18:14:00,
2013-02-20 13:24:00,34.0,19.9,30.16,SW,225,4.0,16.0,56,0.00,,,-99.99,Weather View 32 v60,2013-02-20 18:24:00,
2013-02-20 13:34:00,34.0,19.9,30.15,WNW,292,1.0,16.0,56,0.00,,,-99.99,Weather View 32 v60,2013-02-20 18:34:00,
2013-02-20 13:39:00,34.0,20.4,30.14,NNW,337,0.0,16.0,57,0.00,,,-99.99,Weather View 32 v60,2013-02-20 18:39:00,
2013-02-20 13:49:00,35.0,19.1,30.15,WSW,247,6.0,16.0,52,0.00,,,-99.99,Weather View 32 v60,2013-02-20 18:49:00,
2013-02-20 13:59:00,34.0,19.5,30.14,WSW,247,5.0,16.0,55,0.00,,,-99.99,Weather View 32 v60,2013-02-20 18:59:00,
2013-02-20 14:04:00,34.0,19.5,30.14,WSW,247,8.0,16.0,55,0.00,,,-99.99,Weather View 32 v60,2013-02-20 19:04:00,
2013-02-20 14:14:00,34.0,19.1,30.14,SW,225,2.0,10.0,54,0.00,,,-99.99,Weather View 32 v60,2013-02-20 19:14:00,
2013-02-20 14:19:00,34.0,19.5,30.14,West,270,2.0,10.0,55,0.00,,,-99.99,Weather View 32 v60,2013-02-20 19:19:00,
2013-02-20 14:29:00,34.0,18.2,30.13,SW,225,2.0,10.0,52,0.00,,,-99.99,Weather View 32 v60,2013-02-20 19:29:00,
2013-02-20 14:36:00,34.0,19.9,30.13,WSW,247,8.0,10.0,56,0.00,,,-99.99,Weather View 32 v60,2013-02-20 19:36:00,
2013-02-20 14:44:00,34.0,18.6,30.14,North,360,4.0,10.0,53,0.00,,,-99.99,Weather View 32 v60,2013-02-20 19:44:00,
2013-02-20 14:49:00,34.0,17.8,30.13,SW,225,5.0,10.0,51,0.00,,,-99.99,Weather View 32 v60,2013-02-20 19:49:00,
2013-02-20 14:54:00,34.0,19.1,30.13,WNW,292,0.0,10.0,54,0.00,,,-99.99,Weather View 32 v60,2013-02-20 19:54:00,
2013-02-20 15:04:00,35.0,18.7,30.14,West,270,0.0,10.0,51,0.00,,,-99.99,Weather View 32 v60,2013-02-20 20:04:00,
2013-02-20 15:09:00,36.0,19.1,30.14,WSW,247,0.0,10.0,50,0.00,,,-99.99,Weather View 32 v60,2013-02-20 20:09:00,
2013-02-20 15:19:00,35.0,19.1,30.14,West,270,0.0,10.0,52,0.00,,,-99.99,Weather View 32 v60,2013-02-20 20:19:00,
2013-02-20 15:29:00,36.0,18.7,30.13,WSW,247,0.0,10.0,49,0.00,,,-99.99,Weather View 32 v60,2013-02-20 20:29:00,
2013-02-20 15:36:00,36.0,19.1,30.13,NW,315,2.0,10.0,50,0.00,,,-99.99,Weather View 32 v60,2013-02-20 20:36:00,
2013-02-20 15:44:00,36.0,18.7,30.13,NNW,337,0.0,9.0,49,0.00,,,-99.99,Weather View 32 v60,2013-02-20 20:44:00,
2013-02-20 15:49:00,36.0,19.1,30.13,NW,315,0.0,9.0,50,0.00,,,-99.99,Weather View 32 v60,2013-02-20 20:49:00,
2013-02-20 15:59:00,35.0,17.8,30.13,NNW,337,0.0,8.0,49,0.00,,,-99.99,Weather View 32 v60,2013-02-20 20:59:00,
2013-02-20 16:14:00,35.0,18.7,30.14,WSW,247,0.0,8.0,51,0.00,,,-99.99,Weather View 32 v60,2013-02-20 21:14:00,
2013-02-20 16:24:00,35.0,18.7,30.14,North,360,0.0,8.0,51,0.00,,,-99.99,Weather View 32 v60,2013-02-20 21:24:00,
2013-02-20 16:34:00,34.0,18.6,30.14,SW,225,0.0,8.0,53,0.00,,,-99.99,Weather View 32 v60,2013-02-20 21:34:00,
2013-02-20 16:39:00,34.0,17.8,30.15,West,270,5.0,8.0,51,0.00,,,-99.99,Weather View 32 v60,2013-02-20 21:39:00,
2013-02-20 16:49:00,33.0,18.2,30.15,NW,315,2.0,7.0,54,0.00,,,-99.99,Weather View 32 v60,2013-02-20 21:49:00,
2013-02-20 17:19:00,30.0,16.6,30.16,NNW,337,0.0,7.0,57,0.00,,,-99.99,Weather View 32 v60,2013-02-20 22:19:00,
2013-02-20 17:34:00,30.0,17.0,30.17,West,270,1.0,5.0,58,0.00,,,-99.99,Weather View 32 v60,2013-02-20 22:34:00,
2013-02-20 18:09:00,27.0,16.1,30.18,West,270,0.0,2.0,63,0.00,,,-99.99,Weather View 32 v60,2013-02-20 23:09:00,
2013-02-20 18:19:00,27.0,16.8,30.18,West,270,0.0,2.0,65,0.00,,,-99.99,Weather View 32 v60,2013-02-20 23:19:00,
2013-02-20 18:24:00,27.0,16.8,30.18,NNW,337,0.0,2.0,65,0.00,,,-99.99,Weather View 32 v60,2013-02-20 23:24:00,
2013-02-20 19:19:00,25.0,16.3,30.20,North,360,0.0,0.0,69,0.00,,,-99.99,Weather View 32 v60,2013-02-21 00:19:00,
2013-02-20 19:29:00,24.0,15.3,30.20,North,360,0.0,0.0,69,0.00,,,-99.99,Weather View 32 v60,2013-02-21 00:29:00,
2013-02-20 19:34:00,24.0,15.6,30.20,North,360,0.0,0.0,70,0.00,,,-99.99,Weather View 32 v60,2013-02-21 00:34:00,
2013-02-20 19:44:00,25.0,16.9,30.22,West,270,0.0,0.0,71,0.00,,,-99.99,Weather View 32 v60,2013-02-21 00:44:00,
2013-02-20 19:49:00,25.0,16.9,30.21,NW,315,0.0,0.0,71,0.00,,,-99.99,Weather View 32 v60,2013-02-21 00:49:00,
2013-02-20 19:59:00,25.0,16.9,30.20,NW,315,0.0,0.0,71,0.00,,,-99.99,Weather View 32 v60,2013-02-21 00:59:00,
2013-02-20 20:09:00,25.0,16.9,30.20,NW,315,0.0,0.0,71,0.00,,,-99.99,Weather View 32 v60,2013-02-21 01:09:00,
2013-02-20 20:19:00,25.0,16.9,30.20,NNW,337,0.0,0.0,71,0.00,,,-99.99,Weather View 32 v60,2013-02-21 01:19:00,
2013-02-20 20:29:00,25.0,16.6,30.19,North,360,3.0,4.0,70,0.00,,,-99.99,Weather View 32 v60,2013-02-21 01:29:00,
2013-02-20 20:34:00,25.0,16.9,30.19,North,360,0.0,4.0,71,0.00,,,-99.99,Weather View 32 v60,2013-02-21 01:34:00,
2013-02-20 20:39:00,25.0,16.6,30.20,NW,315,0.0,5.0,70,0.00,,,-99.99,Weather View 32 v60,2013-02-21 01:39:00,
2013-02-20 20:49:00,25.0,16.6,30.20,NNW,337,0.0,5.0,70,0.00,,,-99.99,Weather View 32 v60,2013-02-21 01:49:00,
2013-02-20 20:54:00,25.0,16.6,30.20,NNW,337,0.0,5.0,70,0.00,,,-99.99,Weather View 32 v60,2013-02-21 01:54:00,
2013-02-20 21:04:00,25.0,16.9,30.19,NNW,337,3.0,5.0,71,0.00,,,-99.99,Weather View 32 v60,2013-02-21 02:04:00,
2013-02-20 21:09:00,25.0,16.9,30.19,North,360,0.0,5.0,71,0.00,,,-99.99,Weather View 32 v60,2013-02-21 02:09:00,
2013-02-20 21:19:00,25.0,16.9,30.20,North,360,0.0,5.0,71,0.00,,,-99.99,Weather View 32 v60,2013-02-21 02:19:00,
2013-02-20 21:24:00,24.0,16.0,30.20,North,360,0.0,5.0,71,0.00,,,-99.99,Weather View 32 v60,2013-02-21 02:24:00,
2013-02-20 21:34:00,24.0,16.0,30.22,NNW,337,2.0,5.0,71,0.00,,,-99.99,Weather View 32 v60,2013-02-21 02:34:00,
2013-02-20 21:40:00,23.0,15.0,30.21,North,360,4.0,4.0,71,0.00,,,-99.99,Weather View 32 v60,2013-02-21 02:40:00,
2013-02-20 21:49:00,23.0,15.3,30.20,NNW,337,2.0,4.0,72,0.00,,,-99.99,Weather View 32 v60,2013-02-21 02:49:00,
2013-02-20 21:59:00,23.0,16.0,30.20,NNW,337,3.0,4.0,74,0.00,,,-99.99,Weather View 32 v60,2013-02-21 02:59:00,
2013-02-20 22:09:00,22.0,15.3,30.21,NNW,337,0.0,4.0,75,0.00,,,-99.99,Weather View 32 v60,2013-02-21 03:09:00,
2013-02-20 22:19:00,22.0,15.9,30.21,North,360,4.0,4.0,77,0.00,,,-99.99,Weather View 32 v60,2013-02-21 03:19:00,
2013-02-20 22:24:00,22.0,16.5,30.21,North,360,2.0,6.0,79,0.00,,,-99.99,Weather View 32 v60,2013-02-21 03:24:00,
2013-02-20 22:29:00,22.0,16.5,30.21,North,360,1.0,6.0,79,0.00,,,-99.99,Weather View 32 v60,2013-02-21 03:29:00,
2013-02-20 22:39:00,22.0,16.8,30.21,North,360,0.0,6.0,80,0.00,,,-99.99,Weather View 32 v60,2013-02-21 03:39:00,
2013-02-20 22:44:00,22.0,17.1,30.21,North,360,0.0,6.0,81,0.00,,,-99.99,Weather View 32 v60,2013-02-21 03:44:00,
2013-02-20 23:04:00,21.0,16.4,30.22,North,360,3.0,6.0,82,0.00,,,-99.99,Weather View 32 v60,2013-02-21 04:04:00,
2013-02-20 23:05:00,20.0,17.0,30.22,North,360,1.0,7.0,88,0.00,,,-99.99,Weather View 32 v60,2013-02-21 04:05:00,
2013-02-20 23:10:00,20.0,17.0,30.22,North,360,3.0,7.0,88,0.00,,,-99.99,Weather View 32 v60,2013-02-21 04:10:00,
2013-02-20 23:14:00,21.0,16.7,30.21,North,360,3.0,6.0,83,0.00,,,-99.99,Weather View 32 v60,2013-02-21 04:14:00,
2013-02-20 23:15:00,20.0,17.5,30.22,NNE,22,3.0,7.0,90,0.00,,,-99.99,Weather View 32 v60,2013-02-21 04:15:00,
2013-02-20 23:20:00,20.0,17.8,30.22,North,360,1.0,7.0,91,0.00,,,-99.99,Weather View 32 v60,2013-02-21 04:20:00,
2013-02-20 23:25:00,20.0,17.5,30.22,North,360,5.0,7.0,90,0.00,,,-99.99,Weather View 32 v60,2013-02-21 04:25:00,
2013-02-20 23:35:00,20.0,17.5,30.21,North,360,1.0,7.0,90,0.00,,,-99.99,Weather View 32 v60,2013-02-21 04:35:00,
2013-02-20 23:44:00,20.0,16.5,30.22,North,360,0.0,4.0,86,0.00,,,-99.99,Weather View 32 v60,2013-02-21 04:44:00,
2013-02-20 23:49:00,20.0,16.5,30.22,NNE,22,2.0,6.0,86,0.00,,,-99.99,Weather View 32 v60,2013-02-21 04:49:00,
2013-02-20 23:54:00,20.0,17.0,30.22,NNE,22,0.0,7.0,88,0.00,,,-99.99,Weather View 32 v60,2013-02-21 04:54:00,
2013-02-20 23:59:00,20.0,17.0,30.22,North,360,0.0,7.0,88,0.00,,,-99.99,Weather View 32 v60,2013-02-21 04:59:00,